STARLINK-32339, 61640

Orbit data source: Space-Track

STARLINK-32339, 61640 is a payload satellite owned by SpaceX/Seattle (US) in LEO that was launched on Wed, 23 Oct 2024 UTC via an FALCON 9 launch vehicle from the Air Force Eastern Test Range (AFETR). Payload-class satellites include a variety of spacecraft equipped with specific instruments for various scientific and technological missions. These include communications satellites like Starlink; space stations such as the ISS; scientific satellites like the Hubble; Earth observation satellites from companies like Planet Labs, Umbra, and HawkEye 360; GPS; miniature CubeSats for education and research; and military/defense satellites.

Loading next visibility...
Identifier
61640, 2024-191V
Orbit
LEO
Country
Flag of USUS
Related business
Manufacturer
SpaceX/Seattle
Mission
Operational Commercial Communications
Bus & Motor
STARLINK V2M, Unknown motor
Mass
730 kg wet, ~700 kg dry
Launch date (UTC)
2024-10-23 (2 years ago)
Launch vehicle
FALCON 9
Launch site
Air Force Eastern Test Range (AFETR)
Object type
Payload
Rocket body
Debris
Shape & HBR
Box + 2 Pan, 17.7 m
Radar Cross Section
33.884 m², Large (>1 m²)

Expand to show TLE details & history
Last TLE update: 15 hours ago

TLE from 15 hours ago
0 STARLINK-32339
1 61640U 24191V   26207.06726443 -.00001218  00000-0 -34731-4 0  9999
2 61640  43.0063  92.6565 0002623 254.4988 105.5574 15.27567524 98694
Epoch: 2026-07-26T01:36Z
TLE epoch observation values (Epoch: 2026-07-26T01:36:51.646Z)
Latitude
-0.00004°
Longitude
124.67075°
Altitude
483.346 km
Speed
7.625 km/s
True Right ascension
06h 10m 37s
True Declination
0° 00' 00"
Sunlit
Object was in daylight at epoch
Visualization orbit readout
Latitude
Unknown
Longitude
Unknown
Altitude
Unknown
Speed
Unknown
Apparent Right ascension
Unknown
Apparent Declination
Unknown
Sunlit
N/A
Visualization observer readout
Local Sidereal Time
05:28:26
Azimuth
Unknown
Elevation
Unknown
Doppler factor
Unknown
Orbital elements
Apogee altitude
486.831 km
Perigee altitude
483.23 km
Semi-major axis
6,863.168 km
Eccentricity
0.00026
Inclination
43.0063°
RAAN
92.6565°
Arg. of periapsis
254.4988°
True anomaly
105.58635°
Mean anomaly
105.5574°
Eccentric anomaly
105.57188°
Mean motion
3.8173 °/min
Orbital period
94.31 mins
BSTAR
-0.000034731
Loading maneuver chart data...
Computing Atmospheric mass density...
Loading historical data...
Loading historical data...
Loading historical data...
Loading historical data...
Loading historical data...
Loading historical data...
Loading historical data...

Documentation

Showing up to 5 results
|